When you browse on this site, cookies collect data to enhance your experience and personalize the content and advertising you see.
Visit our Privacy Policy to learn more. By continuing to use the site, you agree to this use of cookies and data.
  • en Suisse
  • Liste des pays
  • À 7 jours
  • Température de l'eau
  • Carte satellitaire
  • Carte météo
  • Widgets météo
  • user-avatar
    Se connecter

    Météo par heure à Tovstolis

    Ce jour, 21 Avril, Dimanche

    Heure Température Précipitation Vent Pression Humidité
    00:00 +9°C° 0 mm 3 m/s 755 mmHg 57%
    01:00 +8°C° 0 mm 3 m/s 755 mmHg 58%
    02:00 +8°C° 0 mm 3 m/s 755 mmHg 59%
    03:00 +8°C° 0 mm 3 m/s 755 mmHg 61%
    04:00 +7°C° 0 mm 2 m/s 754 mmHg 62%
    05:00 +6°C° 0 mm 2 m/s 754 mmHg 64%
    06:00 +8°C° 0 mm 3 m/s 754 mmHg 61%
    07:00 +9°C° 0 mm 3 m/s 755 mmHg 58%
    08:00 +11°C° 0 mm 4 m/s 755 mmHg 55%
    09:00 +12°C° 0 mm 4 m/s 755 mmHg 51%
    10:00 +13°C° 0 mm 5 m/s 755 mmHg 47%
    11:00 +14°C° 0 mm 5 m/s 755 mmHg 42%
    12:00 +14°C° 0 mm 5 m/s 755 mmHg 42%
    13:00 +14°C° 0 mm 5 m/s 755 mmHg 42%
    14:00 +14°C° 0 mm 5 m/s 755 mmHg 42%
    15:00 +14°C° 0 mm 5 m/s 755 mmHg 43%
    16:00 +14°C° 0 mm 5 m/s 755 mmHg 44%
    17:00 +13°C° 0 mm 5 m/s 755 mmHg 45%
    18:00 +12°C° 0 mm 4 m/s 755 mmHg 49%
    19:00 +11°C° 0 mm 3 m/s 755 mmHg 53%
    20:00 +9°C° 0 mm 3 m/s 756 mmHg 58%
    21:00 +9°C° 0 mm 3 m/s 756 mmHg 57%
    22:00 +9°C° 0 mm 3 m/s 756 mmHg 57%
    23:00 +9°C° 0 mm 3 m/s 757 mmHg 56%

    Demain, 22 Avril, Lundi

    Heure Température Précipitation Vent Pression Humidité
    00:00 +9°C° 0 mm 2 m/s 757 mmHg 57%
    01:00 +9°C° 0 mm 2 m/s 757 mmHg 57%
    02:00 +9°C° 0 mm 2 m/s 757 mmHg 58%
    03:00 +8°C° 0 mm 2 m/s 757 mmHg 59%
    04:00 +8°C° 0 mm 2 m/s 758 mmHg 59%
    05:00 +8°C° 0 mm 2 m/s 758 mmHg 60%
    06:00 +9°C° 0 mm 3 m/s 758 mmHg 57%
    07:00 +10°C° 0 mm 3 m/s 758 mmHg 54%
    08:00 +11°C° 0 mm 3 m/s 759 mmHg 51%
    09:00 +12°C° 0 mm 3 m/s 759 mmHg 45%
    10:00 +13°C° 0 mm 4 m/s 759 mmHg 40%
    11:00 +14°C° 0 mm 4 m/s 759 mmHg 35%
    12:00 +15°C° 0 mm 4 m/s 759 mmHg 35%
    13:00 +15°C° 0 mm 4 m/s 759 mmHg 35%
    14:00 +16°C° 0 mm 3 m/s 759 mmHg 35%
    15:00 +16°C° 0 mm 3 m/s 759 mmHg 36%
    16:00 +14°C° 0 mm 3 m/s 759 mmHg 38%
    17:00 +14°C° 0 mm 3 m/s 759 mmHg 39%
    18:00 +14°C° 0 mm 2 m/s 759 mmHg 43%
    19:00 +12°C° 0 mm 2 m/s 759 mmHg 47%
    20:00 +11°C° 0 mm 1 m/s 759 mmHg 51%
    21:00 +10°C° 0 mm 1 m/s 760 mmHg 51%
    22:00 +10°C° 0 mm 1 m/s 760 mmHg 52%
    23:00 +10°C° 0 mm 1 m/s 760 mmHg 52%

    Après-demain, 23 Avril, Mardi

    Heure Température Précipitation Vent Pression Humidité
    00:00 +10°C° 0 mm 1 m/s 760 mmHg 53%
    01:00 +10°C° 0 mm 1 m/s 760 mmHg 53%
    02:00 +9°C° 0 mm 2 m/s 760 mmHg 54%
    03:00 +9°C° 0 mm 2 m/s 760 mmHg 55%
    04:00 +8°C° 0 mm 2 m/s 761 mmHg 56%
    05:00 +8°C° 0 mm 2 m/s 761 mmHg 57%
    06:00 +9°C° 0 mm 2 m/s 761 mmHg 56%
    07:00 +10°C° 0 mm 2 m/s 761 mmHg 55%
    08:00 +12°C° 0 mm 2 m/s 761 mmHg 55%
    09:00 +13°C° 0 mm 3 m/s 761 mmHg 48%
    10:00 +14°C° 0 mm 3 m/s 761 mmHg 42%
    11:00 +17°C° 0 mm 3 m/s 761 mmHg 36%
    12:00 +17°C° 0 mm 3 m/s 761 mmHg 36%
    13:00 +17°C° 0 mm 3 m/s 761 mmHg 37%
    14:00 +17°C° 0 mm 3 m/s 760 mmHg 38%
    15:00 +17°C° 0 mm 3 m/s 760 mmHg 40%
    16:00 +17°C° 0 mm 3 m/s 760 mmHg 42%
    17:00 +16°C° 0 mm 3 m/s 760 mmHg 44%
    18:00 +15°C° 0 mm 2 m/s 760 mmHg 47%
    19:00 +14°C° 0 mm 2 m/s 760 mmHg 50%
    20:00 +13°C° 0 mm 2 m/s 760 mmHg 53%
    21:00 +13°C° 0 mm 2 m/s 760 mmHg 54%
    22:00 +13°C° 0 mm 2 m/s 760 mmHg 54%
    23:00 +12°C° 0 mm 2 m/s 760 mmHg 55%

    24 Avril, Mercredi

    Heure Température Précipitation Vent Pression Humidité
    00:00 +12°C° 0 mm 2 m/s 761 mmHg 55%
    01:00 +12°C° 0 mm 2 m/s 761 mmHg 56%
    02:00 +12°C° 0 mm 2 m/s 761 mmHg 57%
    03:00 +10°C° 0 mm 2 m/s 761 mmHg 58%
    04:00 +11°C° 0 mm 1 m/s 761 mmHg 59%
    05:00 +11°C° 0 mm 1 m/s 761 mmHg 60%
    06:00 +12°C° 0 mm 1 m/s 761 mmHg 56%
    07:00 +14°C° 0 mm 2 m/s 761 mmHg 53%
    08:00 +15°C° 0 mm 2 m/s 761 mmHg 49%
    09:00 +16°C° 0 mm 2 m/s 761 mmHg 45%
    10:00 +17°C° 0 mm 3 m/s 761 mmHg 42%
    11:00 +18°C° 0 mm 4 m/s 761 mmHg 38%
    12:00 +18°C° 0 mm 4 m/s 761 mmHg 38%
    13:00 +18°C° 0 mm 4 m/s 760 mmHg 38%
    14:00 +19°C° 0 mm 4 m/s 760 mmHg 38%
    15:00 +18°C° 0 mm 3 m/s 760 mmHg 40%
    16:00 +18°C° 0 mm 3 m/s 759 mmHg 42%
    17:00 +18°C° 0 mm 3 m/s 759 mmHg 44%
    18:00 +16°C° 0 mm 3 m/s 759 mmHg 49%
    19:00 +15°C° 0 mm 2 m/s 759 mmHg 54%
    20:00 +13°C° 0 mm 2 m/s 759 mmHg 58%
    21:00 +12°C° 0 mm 2 m/s 759 mmHg 59%
    22:00 +12°C° 0 mm 2 m/s 759 mmHg 61%
    23:00 +10°C° 0 mm 2 m/s 760 mmHg 62%

    25 Avril, Jeudi

    Heure Température Précipitation Vent Pression Humidité
    00:00 +10°C° 0 mm 2 m/s 760 mmHg 62%
    01:00 +10°C° 0 mm 2 m/s 760 mmHg 63%
    02:00 +9°C° 0 mm 2 m/s 760 mmHg 64%
    03:00 +9°C° 0 mm 2 m/s 760 mmHg 65%
    04:00 +8°C° 0 mm 2 m/s 760 mmHg 66%
    05:00 +8°C° 0 mm 2 m/s 759 mmHg 68%
    06:00 +10°C° 0 mm 2 m/s 759 mmHg 64%
    07:00 +11°C° 0 mm 3 m/s 760 mmHg 61%
    08:00 +13°C° 0 mm 3 m/s 760 mmHg 58%
    09:00 +15°C° 0 mm 4 m/s 759 mmHg 53%
    10:00 +17°C° 0 mm 4 m/s 759 mmHg 49%
    11:00 +19°C° 0 mm 5 m/s 759 mmHg 44%
    12:00 +19°C° 0 mm 5 m/s 758 mmHg 43%
    13:00 +20°C° 0 mm 5 m/s 758 mmHg 43%
    14:00 +20°C° 0 mm 5 m/s 758 mmHg 42%
    15:00 +20°C° 0 mm 5 m/s 757 mmHg 44%
    16:00 +19°C° 0 mm 4 m/s 757 mmHg 47%
    17:00 +19°C° 0 mm 4 m/s 756 mmHg 49%
    18:00 +17°C° 0 mm 4 m/s 756 mmHg 54%
    19:00 +15°C° 0 mm 4 m/s 756 mmHg 59%
    20:00 +13°C° 0 mm 3 m/s 756 mmHg 64%
    21:00 +12°C° 0 mm 3 m/s 756 mmHg 65%
    22:00 +12°C° 0 mm 3 m/s 756 mmHg 66%
    23:00 +11°C° 0 mm 3 m/s 755 mmHg 67%

    26 Avril, Vendredi

    Heure Température Précipitation Vent Pression Humidité
    00:00 +11°C° 0 mm 3 m/s 755 mmHg 68%
    01:00 +11°C° 0 mm 3 m/s 755 mmHg 68%
    02:00 +11°C° 0 mm 3 m/s 754 mmHg 69%
    03:00 +11°C° 0 mm 4 m/s 754 mmHg 65%
    04:00 +11°C° 0 mm 4 m/s 754 mmHg 62%
    05:00 +11°C° 0 mm 4 m/s 754 mmHg 59%
    06:00 +12°C° 0 mm 5 m/s 753 mmHg 57%
    07:00 +13°C° 0 mm 6 m/s 753 mmHg 55%
    08:00 +14°C° 0 mm 6 m/s 753 mmHg 53%
    09:00 +15°C° 0 mm 7 m/s 753 mmHg 49%
    10:00 +16°C° 0 mm 7 m/s 752 mmHg 45%
    11:00 +18°C° 0 mm 7 m/s 752 mmHg 41%
    12:00 +18°C° 0 mm 8 m/s 751 mmHg 41%
    13:00 +20°C° 0 mm 8 m/s 751 mmHg 41%
    14:00 +20°C° 0 mm 8 m/s 750 mmHg 41%
    15:00 +20°C° 0 mm 7 m/s 750 mmHg 44%
    16:00 +20°C° 0 mm 6 m/s 750 mmHg 47%
    17:00 +20°C° 0 mm 5 m/s 749 mmHg 50%
    18:00 +19°C° 0 mm 5 m/s 749 mmHg 52%
    19:00 +17°C° 0 mm 5 m/s 749 mmHg 54%
    20:00 +16°C° 0 mm 5 m/s 749 mmHg 56%
    21:00 +16°C° 0 mm 5 m/s 748 mmHg 57%
    22:00 +15°C° 0 mm 6 m/s 748 mmHg 58%
    23:00 +15°C° 0 mm 6 m/s 748 mmHg 59%
    Voir plus